TimeAKDT,TemperatureF,Dew PointF,Humidity,Sea Level PressureIn,VisibilityMPH,Wind Direction,Wind SpeedMPH,Gust SpeedMPH,PrecipitationIn,Events,Conditions,WindDirDegrees,DateUTC
12:53 AM,6.1,1.9,83,29.94,10.0,Calm,Calm,-,N/A,,Scattered Clouds,0,2014-04-09 08:53:00
1:51 AM,5.0,1.4,85,29.95,7.0,Calm,Calm,-,0.00,Snow,Light Snow,0,2014-04-09 09:51:00
1:53 AM,5.0,1.9,87,29.95,7.0,Calm,Calm,-,0.00,Snow,Light Snow,0,2014-04-09 09:53:00
2:51 AM,5.0,1.4,85,29.96,5.0,Calm,Calm,-,0.00,Snow,Light Snow,0,2014-04-09 10:51:00
2:53 AM,5.0,3.0,92,29.97,5.0,Calm,Calm,-,0.00,Snow,Light Snow,0,2014-04-09 10:53:00
3:53 AM,5.0,1.9,87,29.97,9.0,Calm,Calm,-,0.00,,Overcast,0,2014-04-09 11:53:00
4:53 AM,1.9,-0.0,91,29.98,10.0,NNE,3.5,-,0.00,,Mostly Cloudy,20,2014-04-09 12:53:00
5:11 AM,-0.0,-2.9,88,29.98,10.0,Calm,Calm,-,N/A,,Scattered Clouds,0,2014-04-09 13:11:00
5:53 AM,-0.0,-2.9,88,29.99,10.0,NNE,3.5,-,N/A,,Scattered Clouds,30,2014-04-09 13:53:00
6:53 AM,-0.9,-4.0,87,29.99,10.0,Calm,Calm,-,N/A,,Scattered Clouds,0,2014-04-09 14:53:00
7:53 AM,-2.0,-5.1,87,29.99,10.0,NNE,3.5,-,N/A,,Scattered Clouds,30,2014-04-09 15:53:00
8:53 AM,1.0,-2.0,87,30.00,7.0,NNE,3.5,-,N/A,,Scattered Clouds,20,2014-04-09 16:53:00
9:53 AM,3.9,1.0,88,30.00,7.0,Calm,Calm,-,0.00,,Scattered Clouds,0,2014-04-09 17:53:00
10:53 AM,10.0,7.0,87,30.01,7.0,East,3.5,-,0.00,,Scattered Clouds,90,2014-04-09 18:53:00
11:53 AM,10.9,9.0,92,30.02,7.0,East,5.8,-,N/A,,Scattered Clouds,100,2014-04-09 19:53:00
12:53 PM,12.9,9.0,84,30.04,7.0,East,5.8,-,N/A,,Scattered Clouds,90,2014-04-09 20:53:00
1:53 PM,14.0,10.0,84,30.04,10.0,East,4.6,-,N/A,,Scattered Clouds,100,2014-04-09 21:53:00
2:53 PM,14.0,10.0,84,30.06,10.0,SSE,5.8,-,N/A,,Scattered Clouds,150,2014-04-09 22:53:00
3:53 PM,14.0,9.0,80,30.05,10.0,South,4.6,-,N/A,,Scattered Clouds,170,2014-04-09 23:53:00
4:53 PM,15.1,10.0,80,30.04,10.0,South,5.8,-,N/A,,Mostly Cloudy,190,2014-04-10 00:53:00
4:58 PM,15.1,9.0,77,30.04,10.0,SSE,3.5,-,N/A,,Mostly Cloudy,150,2014-04-10 00:58:00
5:53 PM,15.1,9.0,77,30.04,10.0,SSE,4.6,-,N/A,,Mostly Cloudy,160,2014-04-10 01:53:00
6:53 PM,15.1,10.0,80,30.04,10.0,SSE,5.8,-,N/A,,Mostly Cloudy,160,2014-04-10 02:53:00
7:53 PM,15.1,8.1,74,30.02,10.0,ESE,5.8,-,N/A,,Mostly Cloudy,120,2014-04-10 03:53:00
8:53 PM,14.0,8.1,77,30.01,10.0,East,5.8,-,N/A,,Mostly Cloudy,80,2014-04-10 04:53:00
9:53 PM,12.9,7.0,77,30.01,10.0,East,4.6,-,N/A,,Mostly Cloudy,80,2014-04-10 05:53:00
10:53 PM,12.0,6.1,77,30.01,10.0,ENE,5.8,-,N/A,,Mostly Cloudy,60,2014-04-10 06:53:00
11:53 PM,7.0,1.9,80,30.01,10.0,NNE,4.6,-,N/A,,Mostly Cloudy,20,2014-04-10 07:53:00